To NAV CANADA Home Page Login to a new session Search on AWWS site Feedback and Comments Disclaimer Vers la page française équivalente Tips FAQ What's new on the site To the Forecasts and Observations / NOTAM section To "File a Flight Plan" website Publications and other links Update of the User's profile FIC Telephone Numbers My Weather Data Folder Route Weather Data Regional Weather Data Local Weather Data To the Forecasts and Observations / NOTAM section
Request Generated 06/26/2017 at 03:26:58 UTC . Weather information available at that time is displayed.

METAR/TAF

PANGNIRTUNG/NU    (show WxCam)

LWIS CYXP 260300Z AUTO 07011G23KT 10/01 A2964=
LWIS CYXP 260200Z AUTO 08015KT 10/01 A2964=
LWIS CYXP 260100Z AUTO 08012G20KT 10/00 A2964=

*** REMARK        : Forecast period has ended; this was the last TAF issued
*** REMARQUE : La période de prévision est échue; ceci était le dernier TAF qui a été émis
TAF CYXP 251759Z 2518/2520 26008KT P6SM BKN080 OVC120
RMK NXT FCST WILL BE ISSUED AT 261245Z=
Your time UTC time
Weather data provided by Environment Canada and NAV CANADA